User: anonymous   Login
Location: Nairn
(57.5833°N, 3.8667°W)
Time: 20:08:30
(UTC+00:00)
Language:

A-11 Canister half - Orbit

View from above orbital plane
View from above orbital plane
View from above satellite
View from above satellite

Ground track
Ground track

The orbit data is extracted from the following two-line orbital elements,

1 00051U 60009C   21169.48121852 -.00000063  00000-0  21488-3 0  9997
2 00051  47.2137 295.0238 0108470 171.2124 189.0593 12.18276938708714
Epoch (UTC): 18 June 2021 11:32:57
Eccentricity: 0.0108470
inclination: 47.2137°
perigee height: 1513 km
apogee height: 1686 km
right ascension of ascending node: 295.0238°
argument of perigee: 171.2124°
revolutions per day: 12.18276938
mean anomaly at epoch: 189.0593°
orbit number at epoch: 70871

The dashed part of the orbit path shows where the satellite is in the earth's shadow,  

DLR